Other Public Products
Issued by NWS Grand Forks, ND

Home | Current Version | Previous Version | Graphics & Text | Print | Product List | Glossary On
Versions: 1 2 3 4 5 6 7 8 9 10 11 12 13 14 15 16 17 18 19 20 21 22 23 24 25 26 27 28 29 30 31 32 33 34 35 36 37 38 39 40 41 42 43 44 45 46 47 48 49 50
000
FPUS83 KFGF 281931
OPUFGF
PRAIRIE TO PINES WEATHER ROUNDUP
NATIONAL WEATHER SERVICE EASTERN NORTH DAKOTA/GRAND FORKS ND
200 PM CDT TUE JUL 28 2015

 **SATELLITE DATA USED TO AUGMENT SKY COVER AT AUTOMATED STATIONS**
 *****  WEATHER ACROSS EASTERN NORTH DAKOTA  *****

CITY           SKY/WX    TMP DP  RH WIND       PRES   REMARKS
GRAND FORKS    MOSUNNY   78  59  51 SW22G31   29.61S
GRAND FORKS AF MOSUNNY   76  57  51 SW23G35   29.62S
GRAND CITY NWS   N/A     77 N/A N/A SW28        N/A
BUXTON         NOT AVBL
DEVILS LAKE    CLOUDY    72  52  49 SW24G33   29.59S
FARGO          MOSUNNY   79  57  46 SW20G30   29.70S
WAHPETON ARPT  CLEAR     77  55  47 SW20G25   29.76S
$$

 *****  WEATHER ACROSS CENTRAL AND WESTERN NORTH DAKOTA  *****

CITY           SKY/WX    TMP DP  RH WIND       PRES   REMARKS
JAMESTOWN      PTSUNNY   72  50  45 W25G38    29.71S
BISMARCK       CLOUDY    73  50  44 W32G45    29.73S
MINOT          LGT RAIN  68  52  56 SW24G43   29.51S
MINOT AFB      PTSUNNY   68  56  66 SW30G45   29.48S
GARRISON         N/A     65  53  65 W32G45    29.60S
WILLISTON      LGT RAIN  61  55  81 W31G51    29.57R
DICKINSON      PTSUNNY   64  48  56 W39G52    29.76R
HETTINGER      CLOUDY    64  45  49 W31G48    29.89R
$$

 *****  OTHER OBSERVATIONS NORTHEAST NORTH DAKOTA  *****

CITY           SKY/WX    TMP DP  RH WIND       PRES   REMARKS
WALHALLA       FAIR      73  57  56 MISG      29.54S
LANGDON        FAIR      73  54  49 SW28G39   29.56F
CAVALIER       FAIR      73  59  60 SW22G30   29.55R
GRAFTON        FAIR      77  59  53 SW25G33   29.59R
CANDO          CLOUDY    68  55  64 SW22G36   29.56F
FORT TOTTEN    NOT AVBL
ROLLA          CLOUDY    63  54  72 SW26G36   29.53S
RUGBY          NOT AVBL
 ***** THE ABOVE OBSERVATIONS ARE NON NWS ARE NOT QUALITY
        CONTROLLED AND MAY MIS-REPORT RAIN FOR SNOW...
$$

 *****  OTHER OBSERVATIONS SOUTHEAST NORTH DAKOTA *****

CITY           SKY/WX    TMP DP  RH WIND       PRES   REMARKS
COOPERSTOWN    NOT AVBL
VALLEY CITY    FAIR      73  55  53 SW29G38   29.70F
OAKES            N/A     77  55  47 W21G36    29.77S
GWINNER        FAIR      75  55  50 SW25G35   29.77S
SHEYENNE NWR     N/A     77  58  52 W16       29.95
BUFFALO        NOT AVBL
WYNDMERE         N/A    N/A N/A N/A SW14        N/A
 ***** THE ABOVE OBSERVATIONS ARE NON NWS ARE NOT QUALITY
       CONTROLLED AND MAY MIS-REPORT RAIN FOR SNOW...
$$

  *****  WEATHER ACROSS NORTHERN MINNESOTA  *****

CITY           SKY/WX    TMP DP  RH WIND       PRES   REMARKS
FLAG ISLAND    PTSUNNY   75  72  88 S14G20    29.56F
WARROAD        MOSUNNY   81  72  74 S14G24    29.59S
ROSEAU         MOSUNNY   81  72  74 SW15G28   29.57S
HALLOCK        MOSUNNY   75  61  60 SW23      29.56R
THF RVR FALLS  MOSUNNY   75  63  64 SW20G29   29.64S
HALSTAD        NOT AVBL
FOSSTON        MOSUNNY   75  64  69 SW18G30   29.70R
BAUDETTE       CLOUDY    77  69  76 S13G23    29.62S
WASKISH        CLOUDY    75  72  88 S3        29.67R
CROOKSTON      MOSUNNY   75  63  64 SW23G30   29.65S
$$
  *****  WEATHER ACROSS CENTRAL AND WEST MINNESOTA  *****

CITY           SKY/WX    TMP DP  RH WIND       PRES   REMARKS
BEMIDJI        CLOUDY    78  66  66 S16G25    29.70S
PARK RAPIDS    PTSUNNY   78  65  63 SW15G28   29.74S
WADENA         CLOUDY    75  66  73 SW17      29.76R
DETROIT LAKES  SUNNY     75  59  57 SW18G26   29.76R
MOORHEAD       SUNNY     79  57  47 SW18      29.72S
FERGUS FALLS   SUNNY     77  63  61 SW17G23   29.75S
ELBOW LAKE     FAIR      77  61  58 SW15G23   29.79R
MORRIS MN      SUNNY     79  66  65 SW12      29.79S
STAPLES        CLOUDY    79  66  65 SW13G20   29.77S
WHEATON        SUNNY     75  59  57 W13       29.80R
$$
  *****  WEATHER ELSEWHERE ACROSS MINNESOTA  *****

CITY           SKY/WX    TMP DP  RH WIND       PRES   REMARKS
DULUTH         PTSUNNY   82  67  60 SW15G28   29.78F
INTRNTL FALLS  CLOUDY    76  71  85 S8G16     29.67S
ELY            PTSUNNY   79  66  65 SW15G21   29.76S
CLOQUET        PTSUNNY   81  64  57 SW18      29.79S
BRAINERD       CLOUDY    77  67  71 S16G24    29.78S
HIBBING        CLOUDY    79  67  66 S13G22    29.76R
ALEXANDRIA     CLOUDY    76  67  73 W15       29.81S
SAINT CLOUD    CLOUDY    80  70  71 S15       29.80S
MINNEAPOLIS    CLOUDY    82  70  66 S13       29.82F
$$

  *****  WEATHER ACROSS SOUTH DAKOTA  *****

CITY           SKY/WX    TMP DP  RH WIND       PRES   REMARKS
SIOUX FALLS    MOSUNNY   78  65  63 NW13G21   29.88R
BROOKINGS      SUNNY     75  61  60 W14       29.89S
WATERTOWN      SUNNY     75  56  51 W20       29.87R
HURON          SUNNY     77  56  48 W18G24    29.88S
SISSETON         N/A     76  57  51 W21G30    29.78R
ABERDEEN       SUNNY     77  53  43 SW24G30   29.82S
MITCHELL       SUNNY     78  57  48 NW17      29.92R
PIERRE         SUNNY     80  46  30 W21G33    29.90S
MOBRIDGE       MOSUNNY   76  51  41 W30G40    29.83R
RAPID CITY     SUNNY     75  42  30 W21G30    30.02S
$$

  *****  SOME WEATHER IN NEARBY STATES *****

CITY           SKY/WX    TMP DP  RH WIND       PRES   REMARKS
GLASGOW MT     LGT RAIN  57  52  83 W29G47    29.79R
GREAT FALLS MT MOSUNNY   72  39  30 W22G29    30.11S
CHEYENNE WY    SUNNY     77  29  17 N16G26    30.18F
SCOTTSBLUFF NE SUNNY     77  33  20 W13       30.12S
OMAHA NE       PTSUNNY   89  74  60 S13       29.85S HX  98
DES MOINES IA  CLOUDY    85  76  74 SE16      29.87R HX  94
DAVENPORT IA   CLOUDY    77  73  87 CALM      29.95F
CHICAGO IL     PTSUNNY   89  70  53 SW8       29.96F HX  94
EAU CLAIRE WI  CLOUDY    81  69  67 S18       29.84F
LA CROSSE WI   CLOUDY    80  72  76 SE10      29.83F
$$

  *****  SOME NATIONAL WEATHER *****

CITY           SKY/WX    TMP DP  RH WIND       PRES   REMARKS
LA GUARDIA NY  PTSUNNY   93  56  28 NE6       29.93F HX  91
RALEIGH NC     PTSUNNY   90  72  55 S10G18    29.98F HX  97
ATLANTA GA     MOSUNNY   93  71  48 W6        29.99F HX 100
NEW ORLEANS LA MOSUNNY   95  66  38 VRB3      30.00F HX  98
OKLAHOMA CITY  SUNNY     93  72  50 S17       29.94S HX 101
ALBUQUERQUE NM PTSUNNY   88  46  23 NW7       30.15F
SALT LAKE CITY SUNNY     71  26  18 VRB5G16   30.27S
LOS ANGELES CA SUNNY     75  62  64 W12       29.91S
BOISE ID       SUNNY     72  36  26 W5        30.25F
SEATTLE WA     MOSUNNY   73  51  46 N6        30.28S
$$

*** WEATHER ACROSS MANITOBA...SASKATCHEWAN AND ONTARIO ***
                ***ONTARIO***

CITY           SKY/WX    TMP DP  RH WIND       PRES   REMARKS
GERALDTON      PTSUNNY   84  66  54 SE14G21   29.90F
THUNDER BAY    CLOUDY    72  63  73 E13       29.85F
SIOUX LOOKOUT  LGT RAIN  73  68  83 S12G20    29.71F
TORONTO        PTSUNNY   91  59  33 S6        29.99F HX  90
BIG TROUT LK   SUNNY     86  61  42 SE7       29.69F
PICKLE LAKE    CLOUDY    84  64  51 S15G30    29.74F
DRYDEN         LGT RAIN  73  68  83 SE18G26   29.66F
KENORA         CLOUDY    72  70  94 S12G23    29.60S
$$
                *** MANITOBA***

CITY           SKY/WX    TMP DP  RH WIND       PRES   REMARKS
BRANDON        PTSUNNY   68  57  68 S22G32    29.43F
DAUPHIN        CLOUDY    70  61  73 SW9       29.35F
ISLAND LAKE    CLOUDY    79  64  61 E12       29.56F
PILOT MOUND      N/A     68  54  60 SW23G31     N/A
THE PAS        LGT RAIN  64  61  88 NE10G21   29.46F
THOMPSON       TSTM      64  63  94 N6        29.67S FOG
WINNIPEG       MOSUNNY   75  64  69 SW21G35   29.48F
LYNN LAKE        N/A    N/A N/A N/A MISG        N/A
CHURCHILL      CLOUDY    55  52  88 E15       29.74F
GILLAM         CLOUDY    75  59  57 NE7       29.67F
$$
                ***SASKATCHEWAN***

CITY           SKY/WX    TMP DP  RH WIND       PRES   REMARKS
ESTEVAN        LGT RAIN  61  57  88 SW25G36   29.29F
KINDERSLEY     CLOUDY    66  50  55 NW24G31   29.81
LLOYDMINSTER   PTSUNNY   70  52  52 NW18G25   29.83S
PRINCE ALBERT  LGT RAIN  59  57  94 N12G18    29.63R
REGINA         LGT RAIN  63  61  94 N9        29.29R



USA.gov is the U.S. government's official web portal to all federal, state and local government web resources and services.